Temp
-8 -8 -8 -9 -9 -9 -9 -9 -9 -9 -9 -9 -9 -9 -9 -9 -9 -9 -9 -9 -9 -9 -9 -9 -9 -9 -9 -9 -10 -10 -10 -10 -10 -10 -11 -11 -11 -11 -11 -11 -11 -11
-9 -9 -9 -9 -9 -9 -9 -9 -9 -9 -9 -9 -9 -9 -9 -9 -9 -9 -9 -9 -9 -9 -9 -9 -9 -9 -9 -10 -10 -10 -10 -10 -10 -11 -11 -11 -11 -11 -11 -11 -11 -11
-8 -9 -9 -9 -9 -9 -9 -9 -10 -9 -9 -9 -9 -9 -9 -9 -9 -9 -9 -9 -9 -9 -9 -9 -9 -9 -9 -10 -10 -10 -10 -10 -10 -11 -11 -11 -11 -11 -11 -11 -11 -11
-8 -8 -8 -8 -9 -8 -9 -9 -9 -9 -9 -9 -9 -9 -9 -9 -9 -9 -9 -9 -9 -9 -9 -9 -9 -9 -9 -10 -10 -10 -10 -10 -10 -11 -11 -11 -11 -11 -11 -11 -11 -11
-8 -8 -8 -8 -9 -9 -9 -9 -9 -9 -9 -9 -9 -9 -9 -9 -9 -9 -9 -9 -9 -9 -9 -9 -9 -9 -10 -10 -10 -10 -10 -10 -11 -11 -11 -11 -11 -11 -11 -11 -11 -11
-8 -8 -8 -8 -9 -9 -9 -9 -9 -9 -9 -9 -9 -9 -9 -9 -9 -9 -9 -9 -9 -9 -9 -9 -9 -9 -10 -10 -10 -10 -10 -10 -11 -11 -11 -11 -11 -11 -11 -11 -11 -11
-8 -8 -8 -9 -9 -9 -9 -9 -9 -9 -9 -9 -9 -9 -9 -9 -9 -9 -9 -9 -9 -9 -9 -9 -9 -9 -10 -10 -10 -10 -10 -11 -11 -11 -11 -11 -11 -11 -11 -11 -11 -11
-8 -8 -8 -9 -9 -9 -9 -9 -9 -10 -10 -9 -9 -9 -9 -9 -9 -9 -9 -9 -9 -9 -9 -9 -9 -10 -10 -10 -10 -10 -10 -11 -11 -11 -11 -11 -11 -11 -11 -11 -11 -11
-8 -8 -8 -9 -9 -9 -10 -10 -10 -10 -10 -9 -9 -9 -9 -9 -9 -9 -9 -9 -9 -9 -9 -9 -9 -10 -10 -10 -10 -10 -11 -11 -11 -11 -11 -11 -11 -11 -11 -11 -11 -11
-8 -8 -8 -9 -9 -10 -10 -10 -10 -10 -9 -9 -9 -9 -9 -10 -10 -9 -9 -9 -9 -9 -9 -9 -9 -10 -10 -10 -10 -10 -11 -11 -11 -11 -11 -11 -11 -11 -11 -11 -11 -11
-8 -9 -9 -9 -10 -10 -10 -10 -10 -10 -9 -9 -9 -9 -10 -10 -10 -10 -10 -9 -10 -10 -10 -10 -10 -10 -10 -10 -10 -10 -11 -11 -11 -11 -11 -11 -11 -11 -11 -11 -11 -11
-8 -9 -9 -10 -10 -10 -10 -10 -10 -9 -9 -9 -9 -9 -10 -10 -10 -10 -10 -10 -10 -10 -10 -10 -10 -10 -10 -10 -10 -11 -11 -11 -11 -11 -11 -11 -11 -11 -11 -11 -11 -11
-9 -9 -10 -10 -10 -10 -10 -10 -10 -9 -9 -9 -9 -10 -10 -10 -10 -10 -10 -10 -10 -10 -10 -10 -10 -10 -10 -10 -11 -11 -11 -11 -11 -11 -11 -11 -11 -11 -11 -11 -11 -11
-10 -10 -10 -10 -10 -10 -10 -10 -9 -9 -9 -9 -9 -10 -10 -10 -10 -10 -10 -10 -10 -10 -10 -10 -10 -10 -10 -11 -11 -11 -11 -11 -11 -11 -11 -11 -11 -11 -11 -11 -11 -11
-10 -10 -10 -10 -10 -10 -10 -9 -9 -9 -9 -10 -10 -10 -10 -10 -10 -10 -10 -10 -10 -10 -10 -10 -10 -10 -11 -11 -11 -11 -11 -11 -11 -11 -11 -11 -11 -11 -11 -11 -11 -11
-10 -10 -10 -10 -10 -10 -10 -9 -9 -9 -10 -10 -10 -10 -10 -10 -10 -10 -10 -10 -10 -10 -10 -10 -10 -10 -11 -11 -11 -11 -11 -11 -11 -11 -11 -11 -11 -11 -11 -11 -11 -11
-10 -10 -10 -10 -10 -10 -10 -9 -9 -9 -10 -10 -10 -10 -10 -10 -10 -10 -10 -10 -10 -10 -10 -10 -10 -11 -11 -11 -11 -11 -11 -11 -11 -11 -11 -11 -11 -11 -11 -11 -11 -11
-10 -10 -10 -10 -10 -10 -10 -9 -9 -10 -10 -10 -10 -10 -10 -10 -10 -10 -10 -10 -10 -10 -10 -10 -11 -11 -11 -11 -11 -11 -11 -11 -11 -11 -11 -11 -11 -11 -11 -11 -11 -11
-10 -10 -10 -10 -10 -10 -10 -10 -10 -10 -10 -10 -10 -10 -10 -10 -10 -10 -10 -10 -10 -10 -10 -10 -11 -11 -11 -11 -11 -11 -11 -11 -11 -11 -11 -11 -11 -11 -11 -11 -11 -11
-9 -10 -10 -10 -10 -10 -10 -10 -10 -10 -10 -10 -10 -10 -10 -10 -10 -10 -10 -10 -10 -10 -10 -10 -11 -11 -11 -11 -11 -11 -11 -11 -11 -11 -11 -11 -11 -11 -11 -11 -11 -11
-10 -10 -10 -10 -10 -10 -10 -10 -10 -10 -10 -10 -10 -10 -10 -10 -10 -10 -10 -10 -10 -11 -11 -11 -11 -11 -11 -11 -11 -11 -11 -11 -11 -11 -11 -11 -11 -11 -11 -11 -11 -11
-10 -10 -10 -10 -10 -10 -10 -10 -10 -10 -10 -10 -10 -10 -10 -10 -10 -10 -10 -10 -10 -11 -11 -11 -11 -11 -11 -11 -11 -11 -11 -11 -11 -11 -11 -11 -11 -11 -11 -11 -11 -11
-10 -10 -10 -10 -10 -10 -10 -10 -10 -10 -10 -10 -10 -10 -10 -10 -10 -10 -10 -11 -11 -11 -11 -11 -11 -11 -11 -11 -11 -11 -11 -11 -11 -11 -11 -11 -11 -11 -11 -11 -11 -11
-10 -10 -10 -9 -9 -9 -9 -10 -10 -10 -10 -10 -10 -10 -10 -10 -10 -10 -11 -11 -11 -11 -11 -11 -11 -11 -11 -11 -11 -11 -11 -11 -11 -11 -11 -11 -11 -11 -11 -11 -11 -11
-9 -9 -9 -9 -9 -9 -10 -10 -10 -10 -10 -10 -10 -10 -10 -10 -10 -10 -11 -11 -11 -11 -11 -11 -11 -11 -11 -11 -11 -11 -11 -11 -11 -11 -11 -11 -11 -11 -11 -11 -11 -11
-9 -9 -9 -9 -9 -10 -10 -10 -10 -10 -10 -10 -10 -10 -10 -10 -10 -11 -11 -11 -11 -11 -11 -11 -11 -11 -11 -11 -11 -11 -11 -11 -11 -11 -11 -11 -11 -11 -11 -11 -11 -11
Height
5879 5877 5876 5875 5875 5874 5873 5872 5871 5870 5870 5869 5868 5868 5867 5867 5867 5867 5866 5866 5865 5864 5863 5863 5862 5861 5860 5860 5859 5858 5857 5856 5856 5855 5854 5853 5852 5850 5849 5848 5847 5845
5877 5875 5874 5873 5872 5872 5871 5870 5869 5869 5868 5868 5867 5866 5865 5865 5865 5865 5864 5864 5863 5862 5861 5861 5860 5860 5859 5858 5857 5856 5856 5855 5854 5853 5852 5851 5850 5849 5848 5846 5845 5843
5875 5873 5872 5871 5870 5869 5868 5867 5867 5867 5867 5867 5866 5865 5864 5863 5863 5862 5862 5862 5861 5861 5860 5859 5858 5858 5857 5856 5855 5855 5854 5853 5852 5851 5850 5849 5848 5847 5846 5844 5843 5842
5873 5872 5870 5869 5868 5868 5866 5865 5864 5864 5865 5865 5864 5863 5863 5862 5861 5860 5860 5860 5859 5859 5858 5857 5857 5856 5855 5854 5853 5853 5852 5851 5850 5849 5848 5847 5846 5846 5844 5842 5841 5840
5872 5870 5869 5867 5866 5867 5865 5863 5862 5862 5863 5863 5862 5862 5861 5860 5859 5858 5858 5858 5857 5857 5856 5855 5855 5854 5853 5852 5851 5851 5851 5850 5849 5847 5846 5846 5845 5844 5842 5841 5839 5838
5868 5867 5867 5865 5865 5864 5863 5861 5861 5860 5860 5861 5861 5860 5859 5858 5857 5856 5856 5856 5855 5855 5854 5853 5853 5852 5851 5850 5850 5849 5849 5848 5847 5846 5845 5844 5843 5842 5840 5839 5838 5837
5865 5865 5864 5863 5863 5862 5861 5859 5859 5859 5858 5858 5858 5858 5857 5855 5855 5854 5854 5854 5854 5853 5852 5851 5851 5850 5849 5849 5848 5848 5847 5846 5845 5844 5843 5842 5841 5840 5838 5837 5836 5835
5861 5861 5861 5860 5860 5859 5858 5858 5858 5857 5856 5856 5856 5856 5855 5853 5853 5852 5852 5852 5852 5851 5850 5849 5849 5848 5847 5847 5846 5846 5846 5845 5843 5842 5841 5840 5839 5838 5837 5836 5835 5834
5856 5857 5858 5858 5857 5857 5857 5856 5856 5856 5855 5855 5854 5853 5853 5851 5851 5851 5851 5850 5850 5849 5849 5848 5847 5846 5846 5845 5844 5844 5844 5843 5842 5841 5839 5839 5838 5837 5835 5834 5833 5832
5853 5854 5856 5856 5856 5855 5855 5855 5855 5854 5854 5853 5852 5851 5850 5849 5849 5849 5849 5848 5848 5847 5846 5846 5845 5845 5844 5843 5843 5842 5842 5841 5841 5839 5838 5837 5836 5835 5834 5833 5832 5831
5852 5854 5854 5854 5854 5854 5853 5853 5853 5853 5852 5851 5850 5849 5848 5847 5847 5847 5847 5846 5846 5845 5844 5844 5843 5843 5842 5842 5841 5841 5840 5840 5839 5838 5837 5835 5835 5834 5833 5832 5831 5830
5852 5853 5853 5853 5852 5852 5852 5852 5852 5851 5850 5849 5847 5847 5846 5846 5846 5846 5845 5844 5844 5843 5843 5842 5842 5841 5840 5840 5840 5839 5839 5838 5838 5837 5835 5834 5833 5833 5831 5830 5830 5829
5851 5851 5851 5851 5851 5851 5851 5850 5850 5849 5848 5846 5845 5845 5845 5845 5844 5844 5843 5843 5842 5841 5841 5840 5840 5839 5839 5838 5838 5838 5837 5837 5836 5836 5834 5832 5832 5831 5830 5829 5828 5827
5849 5849 5849 5849 5849 5849 5849 5849 5848 5847 5845 5844 5844 5844 5844 5843 5843 5842 5841 5841 5840 5840 5839 5839 5838 5838 5837 5837 5836 5836 5835 5835 5835 5834 5833 5831 5830 5830 5829 5828 5827 5826
5847 5848 5848 5848 5848 5848 5847 5847 5846 5845 5844 5843 5843 5843 5842 5842 5841 5840 5840 5839 5839 5838 5838 5837 5837 5837 5836 5836 5835 5835 5834 5834 5833 5832 5831 5830 5829 5828 5828 5827 5826 5825
5847 5847 5847 5847 5847 5846 5846 5845 5844 5843 5842 5842 5842 5842 5841 5841 5840 5839 5838 5837 5837 5837 5836 5836 5835 5835 5835 5834 5834 5833 5833 5832 5831 5831 5830 5829 5828 5827 5826 5826 5825 5824
5847 5847 5847 5846 5845 5845 5844 5843 5842 5842 5841 5841 5841 5840 5840 5839 5838 5837 5837 5836 5836 5836 5835 5835 5834 5834 5833 5833 5833 5832 5832 5831 5830 5829 5829 5828 5828 5826 5825 5824 5824 5823
5846 5846 5846 5845 5844 5843 5842 5841 5841 5841 5841 5840 5840 5839 5839 5838 5837 5836 5835 5835 5835 5834 5834 5833 5833 5832 5832 5832 5832 5831 5830 5830 5829 5828 5828 5827 5827 5826 5824 5823 5822 5822
5846 5845 5844 5843 5843 5841 5841 5840 5840 5840 5840 5839 5839 5838 5837 5836 5836 5835 5834 5834 5834 5833 5832 5832 5831 5831 5831 5830 5830 5830 5829 5828 5828 5827 5827 5826 5826 5825 5824 5822 5821 5820
5844 5843 5842 5842 5841 5841 5840 5840 5840 5840 5839 5838 5838 5837 5836 5835 5835 5834 5834 5833 5832 5832 5831 5830 5830 5829 5829 5829 5829 5829 5828 5828 5827 5826 5826 5825 5825 5824 5823 5822 5820 5819
5842 5841 5841 5841 5841 5840 5840 5840 5839 5839 5838 5837 5837 5836 5835 5835 5834 5833 5832 5832 5831 5831 5830 5829 5828 5828 5828 5828 5828 5827 5827 5827 5826 5825 5825 5824 5824 5823 5822 5821 5820 5819
5840 5840 5840 5840 5840 5840 5840 5839 5838 5838 5837 5836 5836 5835 5834 5834 5833 5832 5831 5830 5830 5829 5828 5828 5827 5827 5827 5827 5827 5826 5826 5826 5825 5825 5824 5823 5823 5822 5821 5820 5819 5818
5840 5840 5840 5840 5840 5840 5839 5838 5838 5837 5836 5836 5835 5834 5833 5832 5831 5830 5829 5829 5828 5828 5827 5827 5826 5826 5826 5826 5825 5825 5825 5825 5824 5823 5823 5822 5821 5821 5820 5819 5818 5817
5841 5840 5840 5840 5840 5839 5838 5838 5837 5837 5836 5835 5834 5833 5832 5831 5830 5829 5828 5827 5827 5826 5826 5825 5825 5825 5825 5824 5824 5824 5824 5823 5823 5822 5822 5821 5820 5819 5819 5818 5817 5817
5841 5841 5841 5840 5839 5839 5838 5837 5837 5836 5835 5834 5833 5832 5831 5829 5828 5827 5827 5826 5825 5825 5824 5824 5824 5823 5823 5823 5823 5823 5822 5822 5821 5821 5820 5819 5819 5818 5817 5816 5816 5815
5842 5842 5841 5840 5839 5838 5838 5837 5836 5835 5833 5832 5831 5830 5829 5828 5827 5826 5826 5825 5824 5824 5823 5823 5822 5822 5822 5822 5821 5821 5820 5820 5819 5819 5818 5818 5817 5817 5816 5815 5814 5813
Wind_Speed
16 13 13 13 11 11 13 14 14 14 13 11 11 13 14 14 14 14 15 15 15 15 14 14 14 14 14 14 15 15 14 15 15 16 16 17 18 18 19 19 19 19
18 16 15 14 12 12 13 13 13 13 11 10 10 12 13 14 14 14 14 15 15 15 14 14 14 14 14 14 15 15 15 15 15 15 16 17 18 19 19 19 19 18
20 19 19 18 15 13 13 13 13 13 10 9 10 12 13 13 13 13 14 14 14 14 14 13 13 14 14 14 15 15 15 15 15 16 16 18 19 19 19 18 18 16
21 22 22 21 16 13 13 13 13 13 11 10 11 12 13 12 12 13 13 13 13 13 14 13 13 14 14 14 15 15 15 15 15 16 17 18 18 18 18 17 16 16
23 24 23 20 15 13 13 13 14 13 11 11 12 13 12 12 12 12 12 12 13 13 13 13 13 14 14 14 15 15 15 15 15 16 17 18 18 17 17 16 16 16
22 22 20 17 15 14 12 12 13 12 10 11 12 12 12 11 11 11 11 12 12 13 13 13 13 14 14 15 15 15 15 14 15 16 17 18 17 16 16 16 16 16
20 20 18 16 15 13 11 12 12 10 10 12 12 12 11 11 11 10 11 12 12 12 13 13 13 14 14 15 15 15 14 14 15 16 17 17 16 16 16 16 15 15
21 19 16 14 13 11 11 11 10 9 11 12 11 11 11 10 10 10 11 12 12 12 12 12 13 14 14 14 15 14 13 13 14 15 16 16 15 15 16 15 14 14
18 14 12 11 11 11 10 10 9 10 11 11 10 10 10 9 9 9 10 12 12 12 12 12 13 14 14 14 14 14 13 13 13 15 15 15 14 15 15 15 14 13
13 9 9 10 9 9 9 9 10 11 10 9 9 9 8 8 9 10 11 12 12 12 12 12 13 13 13 14 14 13 13 12 12 14 15 14 14 14 14 13 13 13
7 5 6 6 6 7 8 9 10 10 9 9 9 8 7 8 9 10 11 12 12 12 12 12 13 13 13 13 13 12 12 12 12 12 14 13 13 13 13 13 13 13
3 4 4 4 4 6 9 10 10 9 8 9 8 7 6 7 9 11 12 12 12 12 12 12 13 13 13 12 12 12 12 12 11 11 12 13 13 12 12 13 13 13
4 4 5 3 4 7 9 10 10 8 8 8 7 6 7 8 10 11 12 12 12 12 12 12 12 12 12 12 12 12 12 11 11 10 11 13 13 12 12 13 13 13
4 4 3 2 5 8 8 10 9 8 8 7 6 7 7 9 11 11 12 12 11 12 12 12 11 11 11 12 11 12 12 11 11 11 11 13 12 12 12 13 13 13
7 5 4 4 6 8 9 10 9 8 8 7 6 8 8 10 11 11 12 12 11 12 12 12 11 10 10 11 10 11 11 11 11 11 11 12 12 12 12 12 13 13
7 5 4 5 6 8 9 9 8 7 7 6 7 8 9 10 10 11 11 11 11 11 12 12 12 11 11 10 10 10 10 11 11 11 11 11 12 13 13 13 13 13
5 4 4 5 6 8 9 9 8 7 6 7 9 9 10 10 10 10 10 10 11 11 11 11 12 12 11 10 9 10 10 10 11 11 11 11 11 12 14 13 12 13
4 4 5 6 7 8 8 8 7 7 7 9 9 9 10 10 10 10 10 11 11 11 12 12 12 12 11 9 9 9 9 10 11 12 12 11 11 12 13 14 13 13
4 5 6 6 7 7 7 7 8 8 8 9 9 10 10 10 10 10 10 11 11 12 13 13 13 12 10 9 9 9 9 10 11 12 11 11 11 11 12 13 14 13
5 6 6 6 6 7 7 7 8 8 9 9 10 10 10 10 10 10 11 12 12 12 13 13 13 12 10 9 9 9 9 11 12 12 11 11 11 11 11 11 12 13
7 7 7 7 6 7 7 7 8 9 10 11 11 11 11 11 11 11 12 12 12 12 13 13 13 11 10 9 9 9 10 11 11 12 11 11 11 11 11 10 10 11
8 8 7 7 7 7 7 8 10 11 11 12 12 12 12 12 12 12 12 13 13 12 12 12 11 10 10 10 9 10 11 11 11 11 11 11 11 10 10 10 9 10
8 8 8 8 8 9 10 10 11 12 12 12 12 12 13 13 12 12 12 12 12 12 12 12 11 10 10 10 10 10 11 11 11 11 11 11 11 10 10 10 10 10
10 10 10 11 10 11 11 12 12 12 13 13 13 13 13 13 13 12 12 12 12 12 12 11 10 10 10 10 10 11 11 11 12 11 11 11 11 11 10 10 11 11
10 10 10 11 11 11 11 12 12 13 13 13 13 13 13 13 13 12 12 11 12 12 11 11 10 10 10 10 10 11 11 12 12 12 12 11 11 12 12 12 12 13
9 9 9 10 10 11 11 11 12 12 13 13 12 12 13 13 12 12 12 12 12 12 12 12 11 11 11 11 11 11 12 13 13 13 12 12 12 12 13 14 14 15
Wind_Direction
280 287 300 305 313 316 310 310 312 312 311 308 309 312 310 310 307 303 302 303 302 303 304 305 307 306 306 306 307 309 311 314 316 319 321 320 318 316 314 313 312 313
273 278 294 303 306 305 301 306 309 306 305 304 303 307 307 307 305 304 304 302 303 304 305 306 307 307 307 306 306 307 310 313 316 320 320 318 316 314 314 314 315 317
269 276 291 301 299 298 301 305 307 306 305 303 303 305 304 303 304 305 304 303 303 304 305 308 309 309 307 306 306 307 309 312 316 319 318 315 314 313 314 316 318 321
272 281 293 297 291 292 301 303 304 309 311 307 306 305 304 305 305 305 304 304 304 305 308 311 311 309 307 306 305 306 308 312 316 317 315 313 313 314 316 318 321 323
276 285 294 290 281 286 296 298 301 307 311 306 304 305 306 308 307 306 306 305 305 308 311 312 311 308 306 305 303 304 308 312 314 314 312 312 313 315 317 319 322 323
276 284 290 281 275 284 288 290 295 300 302 301 301 305 308 308 308 308 308 307 307 310 312 311 309 305 303 302 301 304 309 311 312 310 311 313 313 315 317 320 322 323
283 281 280 277 276 281 281 281 287 293 297 300 302 308 312 311 311 311 309 307 307 309 310 309 306 302 301 301 302 305 309 310 310 310 311 312 312 314 317 319 321 322
297 281 272 275 274 273 277 280 285 293 296 299 304 310 314 313 312 310 307 306 305 306 308 306 302 300 299 300 302 305 308 308 309 310 309 309 311 315 317 318 320 320
302 281 262 261 263 269 279 281 287 292 292 298 307 311 315 313 310 308 305 304 304 304 304 303 302 301 299 301 304 306 307 308 309 308 306 306 310 314 315 316 318 317
304 279 249 251 263 274 279 280 286 288 291 302 309 313 317 312 309 307 304 303 304 304 305 305 304 302 300 301 303 305 307 307 307 304 301 303 310 313 313 313 314 314
307 256 243 263 275 276 279 282 286 290 298 307 310 316 318 310 307 306 304 304 305 306 307 305 303 302 300 301 302 303 304 303 301 299 297 300 307 310 309 309 310 310
309 266 292 307 286 282 286 287 290 297 308 312 314 320 315 308 307 306 306 307 306 306 306 304 304 304 302 301 302 301 300 298 295 294 295 301 307 309 306 305 307 308
320 318 333 325 287 291 291 292 299 308 315 316 320 320 313 310 309 308 308 308 307 307 307 307 308 306 303 304 304 302 298 294 291 291 296 301 306 308 305 304 306 307
349 351 347 312 296 298 297 302 311 318 321 322 323 318 313 312 311 310 310 308 308 309 309 309 307 304 303 302 300 297 291 288 289 294 300 302 304 304 302 303 306 306
354 352 338 316 308 305 307 312 318 324 325 324 320 314 312 313 311 311 310 310 311 311 310 310 306 302 299 296 293 289 284 284 289 296 301 303 303 303 303 306 308 308
347 339 321 317 316 314 315 318 323 328 325 318 314 312 312 313 311 310 311 313 314 312 310 309 307 304 301 296 291 284 280 283 290 296 302 304 304 305 306 310 312 311
338 326 322 331 326 321 320 322 327 330 322 315 312 312 314 314 313 313 315 316 314 310 308 307 306 304 299 292 283 277 277 285 294 301 306 306 306 307 309 313 316 314
337 334 344 343 329 324 326 327 329 326 318 314 313 315 319 318 317 318 317 315 313 309 309 308 306 302 294 284 274 272 279 290 297 304 306 306 309 312 314 316 318 316
348 350 355 347 333 331 330 326 324 320 316 317 318 322 325 322 321 319 315 315 314 312 311 309 305 301 292 280 274 276 287 296 300 303 304 305 310 314 317 318 317 317
357 1 360 351 340 333 328 323 321 322 323 326 329 330 329 325 322 319 316 315 315 312 310 307 305 299 289 279 279 285 294 298 300 301 302 306 311 316 320 320 318 318
5 4 357 348 338 329 326 325 327 331 334 335 335 334 330 326 322 318 314 312 311 309 306 304 302 295 283 278 281 288 294 297 299 300 301 305 312 318 322 324 322 321
3 358 349 342 336 332 334 339 340 340 338 337 335 332 327 323 317 313 310 307 306 305 302 301 297 285 275 274 279 287 293 296 299 298 297 302 311 318 322 325 327 327
1 356 348 343 344 344 345 346 344 339 335 333 331 327 322 317 312 309 307 304 304 303 301 299 293 281 274 275 281 288 293 297 300 296 293 298 306 313 319 322 325 325
359 355 347 342 343 344 343 341 337 333 330 327 324 321 317 313 310 309 307 305 304 303 302 299 293 283 277 277 282 288 294 298 299 294 291 294 300 306 312 316 318 319
352 346 339 335 335 336 336 333 329 326 324 322 320 319 317 315 313 312 310 309 307 306 305 302 296 287 279 279 283 288 294 298 296 293 291 291 295 300 305 308 310 312
340 335 332 332 333 334 333 330 327 326 324 323 323 322 321 319 318 317 316 315 313 312 311 307 301 293 286 284 286 289 292 294 293 293 292 292 293 296 300 303 305 305